Regional Weather Roundup
Issued by NWS

Home | Current Version | Previous Version | Graphics & Text | Print | Product List | Glossary On
Versions: 1 2 3 4 5 6 7 8 9 10 11 12 13 14 15 16 17 18 19 20 21 22 23 24 25 26 27
000
ASUS45 KBOU 271407
RWRCO

WEATHER ROUNDUP FOR COLORADO
NATIONAL WEATHER SERVICE DENVER/BOULDER CO
800 AM MDT THU APR 27 2017

NOTE: "FAIR" INDICATES FEW OR NO CLOUDS BELOW 12000 FEET WITH NO
SIGNIFICANT WEATHER AND/OR OBSTRUCTIONS TO VISIBILITY.

COZ001>005-013-030-031-271500-
...NORTHWEST COLORADO...

CITY           SKY/WX    TMP DP  RH WIND       PRES   REMARKS
CRAIG          LGT RAIN  39  35  86 W23G32    29.65R FOG
HAYDEN         CLOUDY    36  30  80 SW6       29.62F
MEEKER         SNOW      33  33 100 SW6       29.67R VSB 1/2 WCI  28
MOUNT WERNER   NOT AVBL
STEAMBOAT SPGS CLOUDY    33  33  99 CALM      29.62S
WALDEN           N/A     34  28  80 S5        29.62S WCI  30
$$

COZ006>008-011-271500-
...WEST CENTRAL VALLEYS...

CITY           SKY/WX    TMP DP  RH WIND       PRES   REMARKS
GRAND JUNCTION FAIR      45  43  93 CALM      29.68S
MONTROSE       FAIR      40  37  89 S8        29.71R
EAGLE          PTSUNNY   36  34  93 E6        29.66S
RIFLE          PTSUNNY   42  39  89 NW6       29.66S
DELTA          PTSUNNY   45  40  84 N8        29.71R
NUCLA          CLOUDY    46  36  66 SW5       29.75R
$$

COZ017>023-064>068-271500-
...SOUTHWEST COLORADO...

CITY           SKY/WX    TMP DP  RH WIND       PRES   REMARKS
DURANGO        LGT RAIN  39  36  89 CALM      29.72F
CORTEZ         CLOUDY    44  43  96 CALM      29.73R
PAGOSA SPRINGS FOG       33  33 100 CALM      29.75S VSB 1/4
TELLURIDE      CLOUDY    34  31  88 W10G18    29.79R WCI  26
WOLF CREEK PAS SNOW      21  21 100 SW12G20   29.81S VSB<1/4 WCI   9
$$

COZ009-010-012-014-032>034-037-058>063-271500-
...CENTRAL COLORADO...

CITY           SKY/WX    TMP DP  RH WIND       PRES   REMARKS
ASPEN          LGT SNOW  32  32 100 NW3       29.65S VSB 1
BUENA VISTA    LGT SNOW  34  30  85 CALM      29.66R VSB 1
COPPER MTN     LGT SNOW  27  21  80 MISG      29.69R VSB 3/4
BERTHOUD PASS  CLOUDY    18   7  62 MISG      29.65F
COTTONWOOD PAS SNOW      32  30  93 SW6       29.67R VSB 1/4 WCI  26
GUNNISON       LGT RAIN  33  32  96 VRB3      29.69R
KREMMLING      LGT SNOW  37  36  93 CALM      29.63S VSB 1
LEADVILLE      LGT SNOW  27  23  85 CALM      29.65S FOG
MONARCH PASS   CLOUDY    23  21  93 W23G36    29.81R WCI   7
SALIDA         CLOUDY    38  33  84 SW16G22   29.74R
SUNLIGHT       SNOW      27  25  93 SW14      29.71F VSB<1/4 WCI  15
WILKERSON PASS FAIR      23  21  93 W5        29.70R WCI  17
$$

COZ069>075-271500-
...SAN LUIS VALLEY/SANGRE DE CRISTO MOUNTAINS...

CITY           SKY/WX    TMP DP  RH WIND       PRES   REMARKS
ALAMOSA        FAIR      40  31  70 SW9       29.66S
LA VETA PASS   CLOUDY    30  27  86 SW24G33   29.78S WCI  16
SAGUACHE       FAIR      37  32  81 CALM      29.68S
$$

COZ035-036-038>040-271500-
...NORTHERN COLORADO FRONT RANGE...

CITY           SKY/WX    TMP DP  RH WIND       PRES   REMARKS
DENVER INTL AP PTSUNNY   43  35  73 W3        29.56F
DMNS CITY PARK   N/A     43  35  72 NW12G17   29.57S
AURORA         PTSUNNY   43  36  77 W6        29.57S
FRONT RANGE AP   N/A     43  37  81 W5        29.57R
ERIE MUNI ARPT FAIR      42  37  83 NW3       29.58R
BOULDER MUN AP PTSUNNY   41  36  81 CALM      29.58R
CENTENNIAL     PTSUNNY   44  35  70 VRB3      29.57S
BROOMFIELD     PTSUNNY   41  36  81 W8        29.59R
FORT COLLINS   FAIR      43  38  82 N6        29.58S
LONGMONT       FAIR      46  38  74 CALM      29.59R HAZE
$$

COZ041-046-047-076>085-087-088-271500-
...PIKES PEAK/PALMER DIVIDE AND SOUTHERN FOOTHILLS...

CITY           SKY/WX    TMP DP  RH WIND       PRES   REMARKS
COLO. SPRINGS  PTSUNNY   43  34  70 NW3       29.59F
A. F. ACADEMY  FAIR      37  33  85 CALM      29.58F
SCHRIEVER AFB  FAIR      40  36  84 NE5       29.58F
ELLICOTT       FAIR     N/A N/A N/A E5        29.57F
FALCON         FAIR      41  33  72 NE3       29.59F
FORT CARSON    FAIR      40  35  81 NW3       29.58R
LIMON          CLOUDY    40  37  89 CALM      29.58F
MONUMENT HILL  FAIR      37  32  81 S3        29.59F
TRINIDAD       FAIR      48  33  56 W14       29.57S
$$

COZ042>045-048>051-090-091-271500-
...NORTHEAST COLORADO...

CITY           SKY/WX    TMP DP  RH WIND       PRES   REMARKS
GREELEY ARPT   CLOUDY    41  37  86 NE6       29.58S
AKRON          FAIR      44  37  76 E7        29.57S
BURLINGTON     NOT AVBL
WRAY           NOT AVBL
STERLING       PTSUNNY   45  41  87 CALM      29.56S
HOLYOKE        FAIR      41  34  75 E9        29.61S
FORT MORGAN    PTSUNNY   42  38  83 CALM      29.57S
$$

COZ086-089-092>099-271500-
...SOUTHEAST COLORADO...

CITY           SKY/WX    TMP DP  RH WIND       PRES   REMARKS
PUEBLO         FAIR      45  39  79 CALM      29.56S
LA JUNTA       FAIR      47  41  80 SW3       29.54F
LAMAR          PTSUNNY   45  39  79 NE7       29.54F
SPRINGFIELD      N/A     46  36  68 SW15G24   29.57F
$$




USA.gov is the U.S. government's official web portal to all federal, state and local government web resources and services.